Torna al catalogo

FENGYUN 1C DEB

AttivoSSO
NORAD 30921·DEBRIS·🇨🇳 China

Lanciato May 10, 1999 da Taiyuan Satellite Launch Center

Loading…

Prossimi Passaggi (prossime 24 ore)

TLE

AggiornatoSource: Space-Track

Epoca: Sep 14, 2026, 06:09 UTC

1 30921U 99025AZK 26257.25678271  .00002559  00000-0  91380-3 0  9995
2 30921  98.8396 355.7678 0015713 303.5435  82.9630 14.34975630  7615

Traccia FENGYUN 1C DEB in tempo reale con AllMySat

Download on the App Store